Date String (YYYY-MM-DD hh:mm:ss) UTC,Instrument flags,absolute air pressure of the measurement (hPa),sample flow rate (lpm),inlet stack bypass flow (lpm),air temperature of the measurement (°C),ambient temperature measured by the external sensor (°C),aerosol sample conditioner tube jacket temperature (°C),OPC LED temperature (°C),internal box temperature (°C),relative humidity of the measurement (%),span deviation,mass concentration of particles derived from Lorenz-Mie calculation of OPC scattering (μg/m³),mass concentration of particles derived from Lorenz-Mie calculation of OPC scattering (μg/m³),mass concentration of particles derived from Lorenz-Mie calculation of OPC scattering (μg/m³)
DateTimeUTC,F1_M11,P_M11,Q1_M11,Q2_M11,T1_M11,T2_M11,T3_M11,T4_M11,T5_M11,U1_M11,ZSPAN_M11,X0_M11,X2_M11,X1_M11
2023-07-17 18:00:00,SystemResetWarning,0833.7,5.01,000.00,028.4,025.2,000.0,036.6,029.9,31.6,-000.3,0018.83,0009.01,0008.07
2023-07-17 18:01:00,SystemResetWarning,0833.7,4.98,000.00,028.4,025.6,000.0,036.7,029.9,31.7,-000.0,0019.33,0009.06,0008.09
2023-07-17 18:02:00,SystemResetWarning,0833.7,5.00,000.00,028.4,026.0,000.0,036.7,029.9,31.3,0000.3,0019.79,0009.12,0008.10
2023-07-17 18:03:00,SystemResetWarning,0833.6,5.01,000.00,028.4,026.4,000.0,036.8,030.0,31.0,0000.1,0019.76,0009.10,0008.10
2023-07-17 18:04:00,SystemResetWarning,0833.7,5.01,000.00,028.5,026.8,000.0,036.8,030.2,31.2,-000.2,0020.14,0009.04,0008.07
2023-07-17 18:05:00,SystemResetWarning,0833.7,4.99,000.00,028.5,027.1,000.0,036.8,030.2,31.0,-000.2,0020.05,0009.02,0008.06
2023-07-17 18:06:00,SystemResetWarning,0833.7,4.99,000.00,028.6,026.9,000.0,036.8,030.3,31.0,-000.6,0020.18,0009.04,0008.07
2023-07-17 18:07:00,SystemResetWarning,0833.7,5.01,000.00,028.5,025.5,000.0,036.7,030.1,30.2,-000.5,0021.23,0009.07,0008.09
2023-07-17 18:08:00,SystemResetWarning,0833.7,5.01,000.00,028.5,024.9,000.0,036.6,030.0,30.8,-000.0,0022.56,0009.12,0008.11
2023-07-17 18:09:00,SystemResetWarning,0833.6,5.01,000.00,028.4,025.2,000.0,036.6,029.9,30.7,0000.2,0022.63,0009.12,0008.10
2023-07-17 18:10:00,SystemResetWarning,0833.6,4.99,000.00,028.4,025.6,000.0,036.7,029.9,30.7,0000.2,0022.95,0009.19,0008.09
2023-07-17 18:11:00,SystemResetWarning,0833.6,5.01,000.00,028.4,026.0,000.0,036.7,030.0,31.1,0000.4,0023.40,0009.32,0008.12
2023-07-17 18:12:00,SystemResetWarning,0833.6,5.00,000.00,028.5,026.4,000.0,036.8,030.1,30.8,0000.1,0025.78,0009.41,0008.12
2023-07-17 18:13:00,SystemResetWarning,0833.6,5.00,000.00,028.5,026.8,000.0,036.8,030.2,30.9,-000.1,0025.50,0009.49,0008.13
2023-07-17 18:14:00,SystemResetWarning,0833.6,5.00,000.00,028.5,027.1,000.0,036.8,030.3,31.3,-000.1,0025.63,0009.58,0008.15
2023-07-17 18:15:00,SystemResetWarning,0833.6,4.99,000.00,028.6,026.2,000.0,036.7,030.1,31.6,0000.1,0025.16,0009.66,0008.17
2023-07-17 18:16:00,SystemResetWarning,0833.6,5.00,000.00,028.5,024.9,000.0,036.7,029.9,31.0,0000.1,0025.25,0009.69,0008.19
2023-07-17 18:17:00,SystemResetWarning,0833.5,5.01,000.00,028.4,024.9,000.0,036.6,029.8,31.3,0000.3,0024.99,0009.67,0008.18
2023-07-17 18:18:00,SystemResetWarning,0833.5,4.98,000.00,028.4,025.3,000.0,036.7,029.8,32.2,0000.4,0024.37,0009.66,0008.19
2023-07-17 18:19:00,SystemResetWarning,0833.5,5.00,000.00,028.4,025.7,000.0,036.7,029.8,32.6,0000.2,0024.76,0009.64,0008.19
2023-07-17 18:20:00,SystemResetWarning,0833.5,5.01,000.00,028.4,026.1,000.0,036.7,030.0,33.2,0000.3,0024.97,0009.64,0008.21
2023-07-17 18:21:00,SystemResetWarning,0833.5,5.01,000.00,028.4,026.5,000.0,036.8,030.1,32.6,0000.5,0025.14,0009.60,0008.22
2023-07-17 18:22:00,SystemResetWarning,0833.5,5.01,000.00,028.5,026.9,000.0,036.8,030.2,31.8,0000.8,0024.61,0009.53,0008.21
2023-07-17 18:23:00,SystemResetWarning,0833.5,5.00,000.00,028.5,027.2,000.0,036.8,030.3,31.7,0000.8,0022.40,0009.43,0008.21
2023-07-17 18:24:00,SystemResetWarning,0833.4,4.98,000.00,028.5,026.4,000.0,036.7,030.2,30.6,0000.7,0022.91,0009.31,0008.21
2023-07-17 18:25:00,SystemResetWarning,0833.4,5.01,000.00,028.5,025.1,000.0,036.6,030.0,30.7,0000.9,0022.72,0009.24,0008.22
2023-07-17 18:26:00,SystemResetWarning,0833.4,5.01,000.00,028.4,025.0,000.0,036.6,029.9,30.7,0001.0,0022.99,0009.20,0008.22
2023-07-17 18:27:00,SystemResetWarning,0833.3,5.00,000.00,028.4,025.4,000.0,036.6,029.9,31.0,0001.1,0022.40,0009.18,0008.23
2023-07-17 18:28:00,SystemResetWarning,0833.3,5.00,000.00,028.4,025.8,000.0,036.7,029.9,30.8,0001.4,0022.72,0009.22,0008.24
2023-07-17 18:29:00,SystemResetWarning,0833.3,5.00,000.00,028.4,026.2,000.0,036.7,030.0,31.3,0001.5,0022.73,0009.22,0008.23
2023-07-17 18:30:00,SystemResetWarning,0833.2,5.01,000.00,028.4,026.6,000.0,036.8,030.1,31.4,0001.3,0021.22,0009.25,0008.22
2023-07-17 18:31:00,SystemResetWarning,0833.2,5.00,000.00,028.5,027.0,000.0,036.8,030.2,31.5,0001.1,0020.69,0009.26,0008.21
2023-07-17 18:32:00,SystemResetWarning,0833.2,4.99,000.00,028.5,027.0,000.0,036.8,030.2,31.6,0000.6,0020.23,0009.31,0008.23
2023-07-17 18:33:00,SystemResetWarning,0833.2,4.99,000.00,028.5,025.8,000.0,036.7,030.1,30.4,-000.0,0019.93,0009.29,0008.21
2023-07-17 18:34:00,SystemResetWarning,0833.2,5.01,000.00,028.5,025.0,000.0,036.6,029.9,30.4,-000.1,0020.35,0009.34,0008.19
2023-07-17 18:35:00,SystemResetWarning,0833.2,5.01,000.00,028.4,025.3,000.0,036.6,029.9,31.6,-000.1,0020.58,0009.35,0008.16
2023-07-17 18:36:00,SystemResetWarning,0833.2,4.99,000.00,028.4,025.6,000.0,036.7,029.9,31.0,-000.3,0020.92,0009.31,0008.12
2023-07-17 18:37:00,SystemResetWarning,0833.2,5.00,000.00,028.4,026.1,000.0,036.7,030.0,32.1,-000.1,0020.49,0009.36,0008.12
2023-07-17 18:38:00,SystemResetWarning,0833.2,5.00,000.00,028.4,026.5,000.0,036.7,030.1,29.9,-000.3,0020.28,0009.39,0008.11
2023-07-17 18:39:00,SystemResetWarning,0833.2,5.01,000.00,028.5,026.8,000.0,036.8,030.2,28.9,-000.6,0020.05,0009.38,0008.10
2023-07-17 18:40:00,SystemResetWarning,0833.2,5.01,000.00,028.5,027.2,000.0,036.8,030.3,29.5,-000.6,0019.74,0009.36,0008.08
2023-07-17 18:41:00,SystemResetWarning,0833.2,4.98,000.00,028.6,026.5,000.0,036.7,030.2,29.2,-000.2,0019.88,0009.33,0008.08
2023-07-17 18:42:00,SystemResetWarning,0833.2,5.02,000.00,028.5,025.1,000.0,036.7,030.0,30.3,-000.2,0019.49,0009.31,0008.08
2023-07-17 18:43:00,SystemResetWarning,0833.1,5.00,000.00,028.4,025.0,000.0,036.6,029.9,30.1,-000.2,0020.34,0009.26,0008.06
2023-07-17 18:44:00,SystemResetWarning,0833.2,5.00,000.00,028.4,025.3,000.0,036.6,029.9,31.6,0000.2,0020.40,0009.21,0008.05
2023-07-17 18:45:00,SystemResetWarning,0833.2,5.00,000.00,028.4,025.7,000.0,036.7,029.9,32.3,0000.5,0020.43,0009.21,0008.03
2023-07-17 18:46:00,SystemResetWarning,0833.2,5.00,000.00,028.4,026.2,000.0,036.7,030.0,31.1,0000.7,0019.67,0009.21,0008.03
2023-07-17 18:47:00,SystemResetWarning,0833.2,4.99,000.00,028.4,026.6,000.0,036.8,030.1,31.5,0000.6,0018.75,0009.22,0008.01
2023-07-17 18:48:00,SystemResetWarning,0833.2,5.00,000.00,028.5,026.9,000.0,036.8,030.2,30.1,0000.2,0020.26,0009.11,0007.96
2023-07-17 18:49:00,SystemResetWarning,0833.2,5.00,000.00,028.5,027.0,000.0,036.8,030.3,29.7,0000.7,0020.64,0009.01,0007.91
2023-07-17 18:50:00,SystemResetWarning,0833.2,4.98,000.00,028.5,025.7,000.0,036.7,030.1,29.9,0001.1,0020.52,0008.91,0007.85
2023-07-17 18:51:00,SystemResetWarning,0833.1,5.01,000.00,028.5,024.8,000.0,036.6,029.9,30.6,0000.8,0020.24,0008.86,0007.79
2023-07-17 18:52:00,SystemResetWarning,0833.2,5.02,000.00,028.4,025.1,000.0,036.6,029.9,30.6,0000.5,0020.30,0008.82,0007.74
2023-07-17 18:53:00,SystemResetWarning,0833.1,5.00,000.00,028.4,025.5,000.0,036.7,029.9,30.3,0000.4,0020.91,0008.83,0007.72
2023-07-17 18:54:00,SystemResetWarning,0833.2,5.00,000.00,028.4,025.9,000.0,036.7,029.9,30.4,0000.7,0020.17,0008.78,0007.69
2023-07-17 18:55:00,SystemResetWarning,0833.1,5.00,000.00,028.4,026.3,000.0,036.7,030.0,31.3,0000.3,0020.38,0008.76,0007.66
2023-07-17 18:56:00,SystemResetWarning,0833.1,5.00,000.00,028.5,026.7,000.0,036.8,030.1,30.8,0000.4,0019.88,0008.69,0007.65
2023-07-17 18:57:00,SystemResetWarning,0833.0,5.00,000.00,028.5,027.0,000.0,036.8,030.2,29.3,0000.3,0019.58,0008.59,0007.61
2023-07-17 18:58:00,SystemResetWarning,0833.0,4.99,000.00,028.6,027.1,000.0,036.8,030.3,30.4,0000.6,0019.71,0008.56,0007.57
2023-07-17 18:59:00,SystemResetWarning,0833.1,4.99,000.00,028.6,025.9,000.0,036.7,030.2,29.6,0000.6,0018.33,0008.54,0007.55
